Madisonville, KY

4:23 AM CDT on August 18, 2017 (GMT -0500)
Madisonville

Weather History for K2I0 - December, 2012

Change the Weather History Date:

Monday, December 3, 2012

  Actual Average (KOWB) Record (KOWB)
Temperature  
Mean Temperature 68 °F -  
Max Temperature 75 °F 48 °F 76 °F (1982)
Min Temperature 61 °F 32 °F 12 °F (1942)
Cooling Degree Days 3    
Growing Degree Days 18 (Base 50)    
Moisture  
Dew Point 57 °F    
Average Humidity 70    
Maximum Humidity 88    
Minimum Humidity 50    
Precipitation  
Precipitation 0.00 in - - ()
Sea Level Pressure  
Sea Level Pressure 30.11 in    
Wind  
Wind Speed 9 mph ()    
Max Wind Speed 21 mph    
Max Gust Speed 28 mph    
Visibility 10.0 miles    
Events      
Averages and records for this station are not official NWS values.
T = Trace of Precipitation, MM = Missing Value Source: Averaged Metar Reports

Daily Weather History Graph

Daily Weather History Graph

Search for Another Location

Airport or City:

Trip Planner

Search our weather history database for the weather conditions in past years. The results will help you decide how hot, cold, wet, or windy it might be!

Date:

Astronomy

Dec. 03, 2012 Rise Set
Actual Time 6:47 AM CST 4:31 PM CST
Civil Twilight 6:18 AM CST 5:00 PM CST
Nautical Twilight 5:46 AM CST 5:32 PM CST
Astronomical Twilight 5:14 AM CST 6:04 PM CST
Moon 9:14 PM CST (12/3) 10:13 AM CST (12/3)
Length of Visible Light 10h 41m
Length of Day
9h 44m
Waning Gibbous, 78% of the Moon is Illuminated
Dec 3
Waning Gibbous
Dec 6
Last Quarter
Dec 13
New
Dec 19
First Quarter
Dec 28
Full

Hourly Weather History & Observations

Time (CST) Temp. Dew Point Humidity Pressure Visibility Wind Dir Wind Speed Gust Speed Precip Events Conditions
12:15 AM 66.2 °F 59.9 °F 80% 30.15 in 10.0 mi SSW 9.2 mph - N/A   Overcast
12:35 AM 66.2 °F 59.7 °F 80% 30.14 in 10.0 mi SSW 8.1 mph - N/A   Overcast
12:55 AM 66.0 °F 59.5 °F 80% 30.14 in 10.0 mi South 8.1 mph - N/A   Overcast
1:15 AM 65.5 °F 59.4 °F 81% 30.14 in 10.0 mi SSW 6.9 mph - N/A   Overcast
1:35 AM 64.8 °F 59.0 °F 82% 30.14 in 10.0 mi South 6.9 mph - N/A   Mostly Cloudy
1:55 AM 64.8 °F 59.2 °F 82% 30.14 in 10.0 mi South 6.9 mph - N/A   Mostly Cloudy
2:15 AM 64.8 °F 59.2 °F 82% 30.15 in 10.0 mi South 8.1 mph - N/A   Overcast
2:35 AM 64.6 °F 59.2 °F 83% 30.15 in 10.0 mi South 8.1 mph - N/A   Mostly Cloudy
2:55 AM 64.0 °F 59.0 °F 84% 30.15 in 10.0 mi South 6.9 mph - N/A   Mostly Cloudy
3:15 AM 63.7 °F 59.0 °F 85% 30.15 in 10.0 mi SSW 6.9 mph - N/A   Scattered Clouds
3:35 AM 63.7 °F 59.0 °F 85% 30.14 in 10.0 mi SSW 6.9 mph - N/A   Scattered Clouds
3:55 AM 62.8 °F 58.6 °F 86% 30.14 in 10.0 mi SSW 8.1 mph - N/A   Scattered Clouds
4:15 AM 62.2 °F 58.5 °F 87% 30.14 in 10.0 mi SSW 6.9 mph - N/A   Clear
4:35 AM 61.9 °F 58.3 °F 88% 30.14 in 10.0 mi South 8.1 mph - N/A   Clear
4:55 AM 61.9 °F 58.3 °F 88% 30.14 in 10.0 mi SSW 8.1 mph - N/A   Clear
5:15 AM 62.2 °F 58.5 °F 87% 30.14 in 10.0 mi South 9.2 mph - N/A   Mostly Cloudy
5:35 AM 61.9 °F 58.1 °F 87% 30.14 in 10.0 mi South 9.2 mph - N/A   Scattered Clouds
5:55 AM 62.2 °F 58.1 °F 86% 30.14 in 10.0 mi SSW 10.4 mph - N/A   Scattered Clouds
6:15 AM 62.4 °F 57.7 °F 85% 30.14 in 10.0 mi SSW 10.4 mph - N/A   Scattered Clouds
6:35 AM 62.1 °F 57.7 °F 86% 30.15 in 10.0 mi South 9.2 mph - N/A   Scattered Clouds
6:55 AM 61.9 °F 57.4 °F 85% 30.16 in 10.0 mi South 9.2 mph - N/A   Scattered Clouds
7:15 AM 62.1 °F 57.4 °F 85% 30.16 in 10.0 mi South 11.5 mph - N/A   Scattered Clouds
7:35 AM 61.7 °F 57.2 °F 85% 30.16 in 10.0 mi South 9.2 mph - N/A   Scattered Clouds
7:55 AM 63.0 °F 57.6 °F 82% 30.16 in 10.0 mi South 9.2 mph - N/A   Scattered Clouds
8:15 AM 64.4 °F 57.9 °F 79% 30.16 in 10.0 mi SSW 10.4 mph - N/A   Scattered Clouds
8:35 AM 65.3 °F 58.1 °F 77% 30.16 in 10.0 mi SSW 12.7 mph 17.3 mph N/A   Clear
8:55 AM 66.7 °F 58.5 °F 75% 30.16 in 10.0 mi SSW 11.5 mph 17.3 mph N/A   Clear
9:15 AM 67.8 °F 58.8 °F 73% 30.16 in 10.0 mi SW 16.1 mph - N/A   Clear
9:35 AM 68.9 °F 59.2 °F 71% 30.16 in 10.0 mi SSW 16.1 mph 19.6 mph N/A   Clear
9:55 AM 70.3 °F 59.9 °F 69% 30.16 in 10.0 mi SW 15.0 mph - N/A   Mostly Cloudy
10:15 AM 70.9 °F 60.3 °F 69% 30.16 in 10.0 mi SSW 15.0 mph - N/A   Scattered Clouds
10:35 AM 71.6 °F 60.6 °F 68% 30.15 in 10.0 mi SSW 15.0 mph - N/A   Mostly Cloudy
10:55 AM 72.7 °F 61.0 °F 67% 30.15 in 10.0 mi SW 12.7 mph - N/A   Scattered Clouds
11:15 AM 73.0 °F 61.3 °F 67% 30.14 in 10.0 mi SW 17.3 mph 25.3 mph N/A   Mostly Cloudy
11:35 AM 72.3 °F 61.3 °F 68% 30.13 in 10.0 mi SW 19.6 mph 23.0 mph N/A   Mostly Cloudy
11:55 AM 74.1 °F 61.3 °F 64% 30.12 in 10.0 mi SW 18.4 mph 24.2 mph N/A   Mostly Cloudy
12:15 PM 73.8 °F 61.0 °F 64% 30.10 in 10.0 mi SW 17.3 mph 25.3 mph N/A   Scattered Clouds
12:35 PM 75.0 °F 60.8 °F 61% 30.09 in 10.0 mi SW 13.8 mph 19.6 mph N/A   Scattered Clouds
1:15 PM 74.5 °F 60.6 °F 62% 30.09 in 10.0 mi SW 16.1 mph 19.6 mph N/A   Mostly Cloudy
1:35 PM 75.2 °F 60.6 °F 60% 30.09 in 10.0 mi SW 20.7 mph - N/A   Mostly Cloudy
1:55 PM 74.7 °F 59.7 °F 60% 30.09 in 10.0 mi SW 15.0 mph - N/A   Scattered Clouds
2:15 PM 75.2 °F 58.5 °F 56% 30.08 in 10.0 mi SSW 15.0 mph 19.6 mph N/A   Scattered Clouds
2:35 PM 73.6 °F 58.3 °F 59% 30.08 in 10.0 mi SW 11.5 mph - N/A   Scattered Clouds
2:55 PM 74.1 °F 57.4 °F 56% 30.07 in 10.0 mi SW 15.0 mph 20.7 mph N/A   Scattered Clouds
3:15 PM 73.8 °F 56.1 °F 54% 30.07 in 10.0 mi SW 16.1 mph 27.6 mph N/A   Scattered Clouds
3:35 PM 74.5 °F 54.9 °F 50% 30.06 in 10.0 mi SW 13.8 mph 19.6 mph N/A   Clear
3:55 PM 73.4 °F 54.9 °F 52% 30.07 in 10.0 mi SSW 11.5 mph - N/A   Clear
4:15 PM 72.7 °F 54.7 °F 53% 30.07 in 10.0 mi South 6.9 mph - N/A   Clear
4:35 PM 70.9 °F 54.5 °F 56% 30.08 in 10.0 mi SSW 5.8 mph - N/A   Clear
4:55 PM 70.0 °F 54.7 °F 58% 30.08 in 10.0 mi SSW 5.8 mph - N/A   Clear
5:15 PM 69.8 °F 54.5 °F 58% 30.08 in 10.0 mi South 6.9 mph - N/A   Clear
5:35 PM 68.4 °F 54.9 °F 62% 30.08 in 10.0 mi South 5.8 mph - N/A   Clear
5:55 PM 67.5 °F 53.4 °F 61% 30.08 in 10.0 mi South 5.8 mph - N/A   Clear
6:15 PM 67.5 °F 52.7 °F 59% 30.08 in 10.0 mi South 6.9 mph - N/A   Mostly Cloudy
6:35 PM 67.1 °F 51.8 °F 58% 30.07 in 10.0 mi South 8.1 mph - N/A   Scattered Clouds
6:55 PM 66.2 °F 50.9 °F 58% 30.07 in 10.0 mi South 10.4 mph - N/A   Clear
7:15 PM 67.1 °F 51.3 °F 57% 30.08 in 10.0 mi South 9.2 mph - N/A   Scattered Clouds
7:35 PM 66.6 °F 52.0 °F 59% 30.07 in 10.0 mi South 10.4 mph - N/A   Scattered Clouds
7:55 PM 66.7 °F 52.3 °F 60% 30.07 in 10.0 mi South 11.5 mph 18.4 mph N/A   Scattered Clouds
8:15 PM 67.1 °F 52.2 °F 59% 30.08 in 10.0 mi South 10.4 mph - N/A   Scattered Clouds
8:35 PM 67.1 °F 52.3 °F 59% 30.08 in 10.0 mi SSW 11.5 mph 17.3 mph N/A   Scattered Clouds
8:55 PM 67.6 °F 52.3 °F 58% 30.08 in 10.0 mi SSW 12.7 mph - N/A   Mostly Cloudy
9:15 PM 67.1 °F 52.5 °F 59% 30.08 in 10.0 mi South 13.8 mph 18.4 mph N/A   Scattered Clouds
9:35 PM 66.9 °F 52.7 °F 60% 30.08 in 10.0 mi South 12.7 mph 17.3 mph N/A   Scattered Clouds
9:55 PM 66.6 °F 52.9 °F 61% 30.09 in 10.0 mi SSW 11.5 mph - N/A   Overcast
10:15 PM 66.7 °F 53.1 °F 61% 30.08 in 10.0 mi South 13.8 mph 18.4 mph N/A   Mostly Cloudy
10:35 PM 66.2 °F 53.2 °F 63% 30.09 in 10.0 mi SSW 9.2 mph - N/A   Mostly Cloudy
10:55 PM 66.4 °F 53.6 °F 63% 30.09 in 10.0 mi SSW 10.4 mph 17.3 mph N/A   Mostly Cloudy
11:15 PM 66.2 °F 53.6 °F 64% 30.09 in 10.0 mi SSW 11.5 mph 17.3 mph N/A   Overcast
11:35 PM 66.2 °F 53.8 °F 64% 30.09 in 10.0 mi SSW 10.4 mph - N/A   Overcast
11:55 PM 66.0 °F 53.8 °F 65% 30.09 in 10.0 mi SSW 9.2 mph - N/A   Overcast